Weather History for KTWM - June, 2012

Change the Weather History Date:

Thursday, June 14, 2012

  Actual Average Record
Temperature  
Mean Temperature 55 °F -  
Max Temperature 59 °F 67 °F - (-1)
Min Temperature 51 °F 44 °F - (-1)
Degree Days  
Heating Degree Days 10    
Growing Degree Days 5 (Base 50)    
Moisture  
Dew Point 49 °F    
Average Humidity 81    
Maximum Humidity 88    
Minimum Humidity 76    
Precipitation  
Precipitation 0.81 in - - ()
Sea Level Pressure  
Sea Level Pressure 29.88 in    
Wind  
Wind Speed 5 mph (ESE)    
Max Wind Speed 15 mph    
Max Gust Speed 25 mph    
Visibility 9 miles    
Events Rain , Thunderstorm    
Averages and records for this station are not official NWS values.
T = Trace of Precipitation, MM = Missing Value Source: NWS Daily Summary

Daily Weather History Graph

Daily Weather History Graph

Search for Another Location

Airport or City:

Trip Planner

Search our weather history database for the weather conditions in past years. The results will help you decide how hot, cold, wet, or windy it might be!

Date:

Astronomy

Jun. 14, 2012 Rise Set
Actual Time 5:11 AM CDT 9:03 PM CDT
Civil Twilight 4:31 AM CDT 9:43 PM CDT
Nautical Twilight 3:36 AM CDT 10:38 PM CDT
Astronomical Twilight 2:15 AM CDT 12:00 AM CDT
Moon 2:07 AM CDT (6/14) 4:36 PM CDT (6/14)
Length of Visible Light 17h 12m
Length of Day
15h 52m
Waning Crescent, 21% of the Moon is Illuminated
Jun 14
Waning Crescent
Jun 19
New
Jun 26
First Quarter
Jul 3
Full
Jul 10
Last Quarter

Hourly Weather History & Observations

Time (CDT) Temp. Dew Point Humidity Pressure Visibility Wind Dir Wind Speed Gust Speed Precip Events Conditions
12:13 AM 51.8 °F 46.4 °F 82% 29.98 in 10.0 mi North 4.6 mph - N/A   Clear
12:32 AM 51.8 °F 46.4 °F 82% 29.97 in 10.0 mi ENE 5.8 mph - N/A   Scattered Clouds
12:53 AM 53.6 °F 46.4 °F 77% 29.98 in 10.0 mi NNE 4.6 mph - N/A   Mostly Cloudy
1:13 AM 53.6 °F 46.4 °F 77% 29.98 in 10.0 mi NE 6.9 mph - N/A   Overcast
1:32 AM 53.6 °F 46.4 °F 77% 29.97 in 10.0 mi ENE 4.6 mph - N/A   Overcast
1:53 AM 53.6 °F 46.4 °F 77% 29.96 in 10.0 mi NE 4.6 mph - N/A   Mostly Cloudy
2:12 AM 53.6 °F 46.4 °F 77% 29.95 in 10.0 mi ENE 3.5 mph - N/A   Scattered Clouds
2:33 AM 53.6 °F 46.4 °F 77% 29.95 in 10.0 mi NNE 3.5 mph - N/A   Scattered Clouds
2:52 AM 53.6 °F 46.4 °F 77% 29.96 in 10.0 mi NNE 5.8 mph - N/A   Scattered Clouds
3:12 AM 53.6 °F 46.4 °F 77% 29.93 in 10.0 mi ENE 6.9 mph - N/A   Scattered Clouds
3:33 AM 51.8 °F 46.4 °F 82% 29.91 in 10.0 mi NE 5.8 mph - N/A   Clear
3:52 AM 51.8 °F 46.4 °F 82% 29.92 in 10.0 mi NE 4.6 mph - N/A   Clear
4:12 AM 51.8 °F 44.6 °F 76% 29.93 in 10.0 mi NE 5.8 mph - N/A   Scattered Clouds
4:52 AM 51.8 °F 44.6 °F 76% 29.93 in 10.0 mi NE 4.6 mph - N/A   Clear
5:12 AM 51.8 °F 44.6 °F 76% 29.93 in 10.0 mi NE 5.8 mph - N/A   Clear
5:33 AM 51.8 °F 44.6 °F 76% 29.92 in 10.0 mi NE 5.8 mph - N/A   Clear
5:52 AM 51.8 °F 46.4 °F 82% 29.90 in 10.0 mi NE 5.8 mph - N/A   Clear
6:12 AM 53.6 °F 46.4 °F 77% 29.91 in 10.0 mi NE 4.6 mph - N/A   Clear
6:33 AM 53.6 °F 46.4 °F 77% 29.92 in 10.0 mi East 4.6 mph - N/A   Clear
6:52 AM 53.6 °F 46.4 °F 77% 29.91 in 10.0 mi East 4.6 mph - N/A   Clear
7:12 AM 53.6 °F 46.4 °F 77% 29.90 in 10.0 mi ENE 9.2 mph - N/A   Clear
7:33 AM 53.6 °F 46.4 °F 77% 29.91 in 10.0 mi East 6.9 mph - N/A   Scattered Clouds
7:52 AM 53.6 °F 46.4 °F 77% 29.90 in 10.0 mi NE 3.5 mph - N/A   Mostly Cloudy
8:12 AM 53.6 °F 46.4 °F 77% 29.91 in 10.0 mi Calm Calm - N/A   Mostly Cloudy
8:33 AM 53.6 °F 48.2 °F 82% 29.96 in 3.0 mi WSW 8.1 mph - 0.05 in Rain , Thunderstorm Heavy Thunderstorms and Rain
8:52 AM 53.6 °F 48.2 °F 82% 29.97 in 10.0 mi SSW 3.5 mph - 0.21 in Rain , Thunderstorm Thunderstorms and Rain
9:12 AM 53.6 °F 48.2 °F 82% 29.98 in 7.0 mi SW 4.6 mph - 0.11 in Rain , Thunderstorm Rain
9:33 AM 53.6 °F 48.2 °F 82% 29.96 in 2.0 mi ESE 4.6 mph - 0.26 in Rain Rain
9:53 AM 51.8 °F 46.4 °F 82% 29.91 in 7.0 mi ESE 13.8 mph - 0.40 in Rain , Thunderstorm Heavy Thunderstorms and Rain
10:12 AM 51.8 °F 46.4 °F 82% 29.84 in 0.5 mi SE 15.0 mph 21.9 mph 0.07 in Rain Rain
10:52 AM 51.8 °F 46.4 °F 82% 29.79 in 0.5 mi SSE 12.7 mph 20.7 mph 0.12 in Rain Light Rain
11:12 AM 53.6 °F 48.2 °F 82% 29.82 in 10.0 mi SE 10.4 mph 23.0 mph N/A   Light Drizzle
11:32 AM 57.2 °F 51.8 °F 82% 29.83 in 10.0 mi SSE 12.7 mph 25.3 mph 0.01 in Rain Light Rain
11:53 AM 57.2 °F 51.8 °F 82% 29.86 in 10.0 mi SW 9.2 mph - 0.01 in Rain , Thunderstorm Light Thunderstorms and Rain
12:13 PM 57.2 °F 51.8 °F 82% 29.86 in 10.0 mi SSE 9.2 mph 23.0 mph N/A Rain , Thunderstorm Light Thunderstorms and Rain
12:32 PM 57.2 °F 51.8 °F 82% 29.88 in 10.0 mi South 6.9 mph - 0.01 in Rain Light Rain
12:53 PM 57.2 °F 51.8 °F 82% 29.88 in 10.0 mi Calm Calm - 0.01 in Rain Light Rain
1:13 PM 57.2 °F 51.8 °F 82% 29.86 in 10.0 mi Calm Calm - 0.02 in   Mostly Cloudy
1:32 PM 57.2 °F 51.8 °F 82% 29.87 in 10.0 mi Calm Calm - 0.02 in Thunderstorm Thunderstorm
2:13 PM 57.2 °F 51.8 °F 82% 29.83 in 10.0 mi East 8.1 mph - N/A Thunderstorm Thunderstorm
2:32 PM 55.4 °F 51.8 °F 88% 29.82 in 10.0 mi ESE 6.9 mph - N/A Rain Light Rain
2:53 PM 55.4 °F 50.0 °F 82% 29.82 in 10.0 mi ESE 10.4 mph - N/A Thunderstorm Unknown
3:13 PM 53.6 °F 48.2 °F 82% 29.84 in 10.0 mi South 4.6 mph - 0.01 in Thunderstorm Unknown
3:32 PM 53.6 °F 48.2 °F 82% 29.84 in 7.0 mi Calm Calm - 0.01 in Rain Rain
3:53 PM 57.2 °F 51.8 °F 82% 29.84 in 10.0 mi SSW 8.1 mph - 0.01 in Thunderstorm Thunderstorm
4:13 PM 59.0 °F 53.6 °F 82% 29.84 in 10.0 mi South 12.7 mph - N/A Thunderstorm Thunderstorm
4:32 PM 59.0 °F 53.6 °F 82% 29.84 in 10.0 mi South 8.1 mph - N/A Rain Light Rain
4:53 PM 59.0 °F 53.6 °F 82% 29.82 in 7.0 mi South 5.8 mph - 0.02 in Rain Light Rain
5:13 PM 57.2 °F 53.6 °F 88% 29.82 in 10.0 mi South 4.6 mph - N/A Rain , Thunderstorm Light Thunderstorms and Rain
5:32 PM 57.2 °F 53.6 °F 88% 29.82 in 10.0 mi South 4.6 mph - 0.01 in   Light Drizzle
6:12 PM 59.0 °F 53.6 °F 82% 29.82 in 10.0 mi South 9.2 mph - N/A   Overcast
6:32 PM 59.0 °F 55.4 °F 88% 29.82 in 10.0 mi SSW 4.6 mph - N/A   Overcast
6:53 PM 59.0 °F 55.4 °F 88% 29.81 in 10.0 mi South 4.6 mph - N/A   Overcast
7:13 PM 59.0 °F 53.6 °F 82% 29.81 in 10.0 mi Calm Calm - N/A   Overcast
7:32 PM 59.0 °F 53.6 °F 82% 29.81 in 10.0 mi Calm Calm - N/A   Overcast
7:53 PM 59.0 °F 53.6 °F 82% 29.81 in 10.0 mi Calm Calm - N/A   Overcast
8:13 PM 59.0 °F 53.6 °F 82% 29.83 in 10.0 mi Calm Calm - N/A   Overcast
8:32 PM 57.2 °F 53.6 °F 88% 29.83 in 10.0 mi Calm Calm - N/A   Overcast
8:53 PM 59.0 °F 53.6 °F 82% 29.83 in 10.0 mi Calm Calm - N/A   Overcast
9:13 PM 57.2 °F 53.6 °F 88% 29.82 in 10.0 mi Calm Calm - N/A   Overcast
9:32 PM 57.2 °F 53.6 °F 88% 29.83 in 10.0 mi Calm Calm - N/A   Overcast
10:13 PM 57.2 °F 51.8 °F 82% 29.84 in 7.0 mi Calm Calm - N/A   Mostly Cloudy
10:32 PM 55.4 °F 51.8 °F 88% 29.85 in 5.0 mi Calm Calm - N/A   Haze
10:53 PM 55.4 °F 50.0 °F 82% 29.85 in 4.0 mi Calm Calm - N/A   Haze
11:32 PM 53.6 °F 48.2 °F 82% 29.85 in 1.0 mi Calm Calm - N/A   Mist
11:53 PM 53.6 °F 48.2 °F 82% 29.85 in 0.8 mi Calm Calm - N/A   Haze